Location: Bamazo
(6.7448°N, 10.8189°W)
Time: 03:52:15
(UTC+00:00)

NATO 3D Rocket - Pass Details

Date: 18 September 2020
Orbit: 670 x 2296 km, 21.5° (Epoch: 23 October)

Event Time Altitude Azimuth Distance (km) Brightness Sun altitude
Rises 20:32:10 0° 252° (WSW) 3,258 7.8 -28.3°
Reaches altitude 10° 20:34:47 10° 254° (WSW) 2,209 6.7 -29.0°
Enters shadow 20:38:32 49° 272° (W) 867 4.0 -29.9°
